Погода в Король Халиде

Саудовская Аравия     24°57′21″N   46°42′28″E
темп.,
°C
ветер,
м/с
пор.,
м/с
влажн.,
%
обл.,
%
осадки,
мм/ч
давл.,
гПа
погр.,
м
24 сентября, пт
пт2400:00+28вюв442082 0.0 100631
03:00+27юв44220 0.0 100620
06:00+26вюв33230 0.0 100817
09:00+34юв55145 0.0 1008518
12:00+38ююв24109 0.0 10072562
15:00+39св55101 0.0 10053544
18:00+34всв69135 0.0 100685
21:00+31всв69144 0.0 1008100
25 сентября, сб
сб2500:00+29всв581361 0.0 100881
03:00+27в581497 0.0 100867
06:00+25ююз2217100 0.0 101011
09:00+33вюв241047 0.0 1010569
12:00+38св57660 0.0 10092064
15:00+38св79761 0.0 10062848
18:00+33св5511100 0.0 100746
21:00+30св5615100 0.0 100958
26 сентября, вс
вс2600:00+27св442419 0.0 100938
03:00+25св233220 0.0 100911
06:00+25в34284 0.0 100928
09:00+32св67175 0.0 1011760
12:00+37св66135 0.0 10092060
15:00+37св65120 0.0 10072708
18:00+33св55171 0.0 100839
21:00+29св56215 0.0 101067
27 сентября, пн
пн2700:00+27ссв4425100 0.0 100937
03:00+25св342874 0.0 100926
06:00+24с34270 0.0 101026
09:00+31ссз56170 0.0 1010563
12:00+36сз67140 0.0 10081773
15:00+37ссз78120 0.0 10052738
18:00+32с57150 0.0 100657
21:00+28ссв58140 0.0 100896
28 сентября, вт
вт2800:00+26ссв46150 0.0 100751
03:00+25ссв44140 0.0 100731
06:00+23сз33150 0.0 100914
09:00+30с34100 0.0 1010636
12:00+35ссз6780 0.0 10071729
15:00+37с7860 0.0 10052625
18:00+31ссв5680 0.0 100642
21:00+27ссв55100 0.0 100846